This is the latest recevied weather packets stored in our database for station/object K0QED. If no packets are shown the sender has not sent any weather packets the latest 1 day(s).
| Time | Temp. | Humidity | Pressure | Rain* | Wind** | Luminosity | Snow |
|---|---|---|---|---|---|---|---|
| 1777990851 | 2.22° C | 96% | 1015.4 hPa | 0 mm | 0 m/s | 11 W/m² | - |
| 1777990548 | 2.22° C | 96% | 1015.5 hPa | 0 mm | 0 m/s | 10 W/m² | - |
| 1777990245 | 2.22° C | 96% | 1015.6 hPa | 0 mm | 0 m/s | 9 W/m² | - |
| 1777989942 | 2.22° C | 96% | 1015.4 hPa | 0 mm | 0 m/s | 8 W/m² | - |
| 1777989638 | 2.22° C | 96% | 1015.5 hPa | 0 mm | 0 m/s | 10 W/m² | - |
| 1777989335 | 2.22° C | 96% | 1015.6 hPa | 0 mm | 0 m/s | 13 W/m² | - |
| 1777989031 | 2.22° C | 96% | 1015.5 hPa | 0 mm | 0.45 m/s, 186° | 8 W/m² | - |
| 1777988727 | 2.22° C | 96% | 1015.5 hPa | 0 mm | 0 m/s | 10 W/m² | - |
| 1777988425 | 2.22° C | 96% | 1015.6 hPa | 0 mm | 0 m/s | 10 W/m² | - |
| 1777988121 | 2.22° C | 96% | 1015.4 hPa | 0 mm | 0 m/s | 16 W/m² | - |
| 1777987817 | 2.22° C | 96% | 1015.5 hPa | 0 mm | 0 m/s | 10 W/m² | - |
| 1777987514 | 2.78° C | 97% | 1015.2 hPa | 0 mm | 0 m/s | 12 W/m² | - |
| 1777987212 | 2.78° C | 97% | 1015 hPa | 0 mm | 0 m/s | 14 W/m² | - |
| 1777986908 | 2.22° C | 97% | 1015.2 hPa | 0 mm | 0 m/s | 13 W/m² | - |
| 1777986606 | 2.22° C | 96% | 1015.1 hPa | 0 mm | 0 m/s | 7 W/m² | - |
| 1777986304 | 2.78° C | 96% | 1015.2 hPa | 0 mm | 0 m/s | 12 W/m² | - |
| 1777986002 | 2.78° C | 96% | 1014.9 hPa | 0 mm | 0 m/s | 7 W/m² | - |
| 1777985698 | 2.78° C | 95% | 1014.6 hPa | 0 mm | 0 m/s | 7 W/m² | - |
| 1777985395 | 3.33° C | 95% | 1014.7 hPa | 0 mm | 0 m/s | 4 W/m² | - |
| 1777985092 | 3.33° C | 94% | 1014.6 hPa | 0 mm | 0 m/s | 6 W/m² | - |
| 1777984788 | 3.33° C | 94% | 1014.7 hPa | 0 mm | 0 m/s | 3 W/m² | - |
| 1777984484 | 3.33° C | 94% | 1014.2 hPa | 0 mm | 0 m/s | 3 W/m² | - |
| 1777984180 | 2.78° C | 93% | 1014.2 hPa | 0 mm | 0.45 m/s, 338° | 6 W/m² | - |
| 1777983878 | 3.33° C | 93% | 1014.2 hPa | 0 mm | 0 m/s | 6 W/m² | - |
| 1777983575 | 3.33° C | 93% | 1013.7 hPa | 0 mm | 0 m/s | 9 W/m² | - |
* Rain latest hour (hover to see other rain measurements)
** Current wind speed in m/s (hover to see current wind gust speed)